GALAXY 30 (G-30)

Last updated on Mon Sep 07 2026 00:03:01 GMT+0000 (Coordinated Universal Time)

1 46114U 20056C 26249.31088867 .00000000 00000+0 00000+0 0 9991 2 46114 0.0259 132.5314 0002216 44.0975 155.6842 1.00267294 22100
UTC large
Height (km)
Speed (km/s)
/
Latitude / Longitude
Inclination (degrees)
Orbital Period (minutes)
Azimuth
Elevation
Range (km)
Doppler Factor

Next 0 passes for location: London (51.5072 / 0.1276)

No passes found over London.
GALAXY 30 (G-30)